Year,Month,Day,Hour,Minute,Value (Times are PST for temperature in C)
2010,05,23,00,00,7.90
2010,05,23,00,01,7.90
2010,05,23,00,02,7.90
2010,05,23,00,03,7.90
2010,05,23,00,04,7.90
2010,05,23,00,05,7.90
2010,05,23,00,06,7.90
2010,05,23,00,07,7.90
2010,05,23,00,08,7.90
2010,05,23,00,09,7.90
2010,05,23,00,10,7.80
2010,05,23,00,11,7.80
2010,05,23,00,12,7.80
2010,05,23,00,13,7.80
2010,05,23,00,14,7.80
2010,05,23,00,15,7.80
2010,05,23,00,16,7.80
2010,05,23,00,17,7.80
2010,05,23,00,18,7.70
2010,05,23,00,19,7.70
2010,05,23,00,20,7.70
2010,05,23,00,21,7.70
2010,05,23,00,22,7.70
2010,05,23,00,23,7.70
2010,05,23,00,24,7.70
2010,05,23,00,25,7.60
2010,05,23,00,26,7.60
2010,05,23,00,27,7.60
2010,05,23,00,28,7.60
2010,05,23,00,29,7.60
2010,05,23,00,30,7.60
2010,05,23,00,31,7.60
2010,05,23,00,32,7.50
2010,05,23,00,33,7.50
2010,05,23,00,34,7.40
2010,05,23,00,35,7.40
2010,05,23,00,36,7.40
2010,05,23,00,37,7.30
2010,05,23,00,38,7.30
2010,05,23,00,39,7.30
2010,05,23,00,40,7.20
2010,05,23,00,41,7.20
2010,05,23,00,42,7.20
2010,05,23,00,43,7.20
2010,05,23,00,44,7.20
2010,05,23,00,45,7.20
2010,05,23,00,46,7.10
2010,05,23,00,47,7.10
2010,05,23,00,48,7.10
2010,05,23,00,49,7.10
2010,05,23,00,50,7.10
2010,05,23,00,51,7.00
2010,05,23,00,52,7.00
2010,05,23,00,53,7.00
2010,05,23,00,54,6.90
2010,05,23,00,55,6.90
2010,05,23,00,56,6.90
2010,05,23,00,57,6.90
2010,05,23,00,58,6.90
2010,05,23,00,59,6.90
2010,05,23,01,00,6.90
2010,05,23,01,01,6.90
2010,05,23,01,02,6.90
2010,05,23,01,03,6.90
2010,05,23,01,04,6.90
2010,05,23,01,05,6.80
2010,05,23,01,06,6.80
2010,05,23,01,07,6.80
2010,05,23,01,08,6.80
2010,05,23,01,09,6.80
2010,05,23,01,10,6.70
2010,05,23,01,11,6.70
2010,05,23,01,12,6.70
2010,05,23,01,13,6.70
2010,05,23,01,14,6.70
2010,05,23,01,15,6.70
2010,05,23,01,16,6.60
2010,05,23,01,17,6.60
2010,05,23,01,18,6.60
2010,05,23,01,19,6.60
2010,05,23,01,20,6.60
2010,05,23,01,21,6.50
2010,05,23,01,22,6.50
2010,05,23,01,23,6.50
2010,05,23,01,24,6.50
2010,05,23,01,25,6.50
2010,05,23,01,26,6.50
2010,05,23,01,27,6.50
2010,05,23,01,28,6.40
2010,05,23,01,29,6.40
2010,05,23,01,30,6.40
2010,05,23,01,31,6.40
2010,05,23,01,32,6.40
2010,05,23,01,33,6.40
2010,05,23,01,34,6.40
2010,05,23,01,35,6.40
2010,05,23,01,36,6.40
2010,05,23,01,37,6.40
2010,05,23,01,38,6.40
2010,05,23,01,39,6.40
2010,05,23,01,40,6.40
2010,05,23,01,41,6.40
2010,05,23,01,42,6.40
2010,05,23,01,43,6.40
2010,05,23,01,44,6.40
2010,05,23,01,45,6.40
2010,05,23,01,46,6.40
2010,05,23,01,47,6.30
2010,05,23,01,48,6.30
2010,05,23,01,49,6.30
2010,05,23,01,50,6.30
2010,05,23,01,51,6.30
2010,05,23,01,52,6.30
2010,05,23,01,53,6.30
2010,05,23,01,54,6.20
2010,05,23,01,55,6.20
2010,05,23,01,56,6.20
2010,05,23,01,57,6.20
2010,05,23,01,58,6.20
2010,05,23,01,59,6.20
2010,05,23,02,00,6.10
2010,05,23,02,01,6.10
2010,05,23,02,02,6.10
2010,05,23,02,03,6.10
2010,05,23,02,04,6.10
2010,05,23,02,05,6.10
2010,05,23,02,06,6.10
2010,05,23,02,07,6.10
2010,05,23,02,08,6.10
2010,05,23,02,09,6.10
2010,05,23,02,10,6.10
2010,05,23,02,11,6.10
2010,05,23,02,12,6.00
2010,05,23,02,13,6.00
2010,05,23,02,14,6.00
2010,05,23,02,15,6.00
2010,05,23,02,16,6.00
2010,05,23,02,17,6.00
2010,05,23,02,18,6.10
2010,05,23,02,19,6.00
2010,05,23,02,20,6.00
2010,05,23,02,21,6.00
2010,05,23,02,22,5.90
2010,05,23,02,23,5.90
2010,05,23,02,24,5.90
2010,05,23,02,25,5.90
2010,05,23,02,26,5.90
2010,05,23,02,27,5.90
2010,05,23,02,28,5.90
2010,05,23,02,29,5.90
2010,05,23,02,30,5.90
2010,05,23,02,31,5.90
2010,05,23,02,32,5.90
2010,05,23,02,33,5.90
2010,05,23,02,34,5.90
2010,05,23,02,35,5.90
2010,05,23,02,36,5.90
2010,05,23,02,37,5.90
2010,05,23,02,38,5.90
2010,05,23,02,39,5.90
2010,05,23,02,40,5.80
2010,05,23,02,41,5.80
2010,05,23,02,42,5.80
2010,05,23,02,43,5.80
2010,05,23,02,44,5.80
2010,05,23,02,45,5.80
2010,05,23,02,46,5.80
2010,05,23,02,47,5.80
2010,05,23,02,48,5.80
2010,05,23,02,49,5.80
2010,05,23,02,50,5.80
2010,05,23,02,51,5.70
2010,05,23,02,52,5.70
2010,05,23,02,53,5.70
2010,05,23,02,54,5.70
2010,05,23,02,55,5.70
2010,05,23,02,56,5.70
2010,05,23,02,57,5.70
2010,05,23,02,58,5.70
2010,05,23,02,59,5.70
2010,05,23,03,00,5.70
2010,05,23,03,01,5.70
2010,05,23,03,02,5.70
2010,05,23,03,03,5.70
2010,05,23,03,04,5.70
2010,05,23,03,05,5.80
2010,05,23,03,06,5.80
2010,05,23,03,07,5.80
2010,05,23,03,08,5.70
2010,05,23,03,09,5.70
2010,05,23,03,10,5.70
2010,05,23,03,11,5.60
2010,05,23,03,12,5.60
2010,05,23,03,13,5.60
2010,05,23,03,14,5.60
2010,05,23,03,15,5.60
2010,05,23,03,16,5.50
2010,05,23,03,17,5.50
2010,05,23,03,18,5.50
2010,05,23,03,19,5.50
2010,05,23,03,20,5.50
2010,05,23,03,21,5.50
2010,05,23,03,22,5.50
2010,05,23,03,23,5.50
2010,05,23,03,24,5.50
2010,05,23,03,25,5.50
2010,05,23,03,26,5.50
2010,05,23,03,27,5.40
2010,05,23,03,28,5.40
2010,05,23,03,29,5.40
2010,05,23,03,30,5.40
2010,05,23,03,31,5.40
2010,05,23,03,32,5.40
2010,05,23,03,33,5.40
2010,05,23,03,34,5.40
2010,05,23,03,35,5.40
2010,05,23,03,36,5.40
2010,05,23,03,37,5.40
2010,05,23,03,38,5.40
2010,05,23,03,39,5.40
2010,05,23,03,40,5.40
2010,05,23,03,41,5.40
2010,05,23,03,42,5.40
2010,05,23,03,43,5.50
2010,05,23,03,44,5.50
2010,05,23,03,45,5.50
2010,05,23,03,46,5.60
2010,05,23,03,47,5.60
2010,05,23,03,48,5.70
2010,05,23,03,49,5.70
2010,05,23,03,50,5.70
2010,05,23,03,51,5.70
2010,05,23,03,52,5.70
2010,05,23,03,53,5.80
2010,05,23,03,54,5.80
2010,05,23,03,55,5.80
2010,05,23,03,56,5.80
2010,05,23,03,57,5.80
2010,05,23,03,58,5.80
2010,05,23,03,59,5.80
2010,05,23,04,00,5.80
2010,05,23,04,01,5.80
2010,05,23,04,02,5.70
2010,05,23,04,03,5.70
2010,05,23,04,04,5.70
2010,05,23,04,05,5.70
2010,05,23,04,06,5.70
2010,05,23,04,07,5.70
2010,05,23,04,08,5.70
2010,05,23,04,09,5.70
2010,05,23,04,10,5.70
2010,05,23,04,11,5.70
2010,05,23,04,12,5.70
2010,05,23,04,13,5.70
2010,05,23,04,14,5.60
2010,05,23,04,15,5.60
2010,05,23,04,16,5.60
2010,05,23,04,17,5.60
2010,05,23,04,18,5.60
2010,05,23,04,19,5.60
2010,05,23,04,20,5.60
2010,05,23,04,21,5.60
2010,05,23,04,22,5.60
2010,05,23,04,23,5.60
2010,05,23,04,24,5.60
2010,05,23,04,25,5.60
2010,05,23,04,26,5.60
2010,05,23,04,27,5.60
2010,05,23,04,28,5.60
2010,05,23,04,29,5.60
2010,05,23,04,30,5.60
2010,05,23,04,31,5.60
2010,05,23,04,32,5.70
2010,05,23,04,33,5.70
2010,05,23,04,34,5.70
2010,05,23,04,35,5.70
2010,05,23,04,36,5.70
2010,05,23,04,37,5.70
2010,05,23,04,38,5.70
2010,05,23,04,39,5.80
2010,05,23,04,40,5.80
2010,05,23,04,41,5.80
2010,05,23,04,42,5.80
2010,05,23,04,43,5.80
2010,05,23,04,44,5.80
2010,05,23,04,45,5.90
2010,05,23,04,46,5.90
2010,05,23,04,47,5.80
2010,05,23,04,48,5.80
2010,05,23,04,49,5.80
2010,05,23,04,50,5.80
2010,05,23,04,51,5.80
2010,05,23,04,52,5.90
2010,05,23,04,53,5.90
2010,05,23,04,54,5.90
2010,05,23,04,55,5.90
2010,05,23,04,56,5.90
2010,05,23,04,57,5.90
2010,05,23,04,58,5.90
2010,05,23,04,59,5.90
2010,05,23,05,00,5.90
2010,05,23,05,01,5.90
2010,05,23,05,02,5.90
2010,05,23,05,03,5.90
2010,05,23,05,04,5.90
2010,05,23,05,05,5.90
2010,05,23,05,06,5.90
2010,05,23,05,07,5.90
2010,05,23,05,08,5.90
2010,05,23,05,09,5.90
2010,05,23,05,10,5.90
2010,05,23,05,11,5.90
2010,05,23,05,12,5.90
2010,05,23,05,13,5.90
2010,05,23,05,14,5.90
2010,05,23,05,15,6.00
2010,05,23,05,16,6.00
2010,05,23,05,17,6.00
2010,05,23,05,18,6.10
2010,05,23,05,19,6.10
2010,05,23,05,20,6.10
2010,05,23,05,21,6.10
2010,05,23,05,22,6.10
2010,05,23,05,23,6.10
2010,05,23,05,24,6.10
2010,05,23,05,25,6.10
2010,05,23,05,26,6.10
2010,05,23,05,27,6.10
2010,05,23,05,28,6.20
2010,05,23,05,29,6.20
2010,05,23,05,30,6.20
2010,05,23,05,31,6.30
2010,05,23,05,32,6.30
2010,05,23,05,33,6.30
2010,05,23,05,34,6.30
2010,05,23,05,35,6.30
2010,05,23,05,36,6.30
2010,05,23,05,37,6.30
2010,05,23,05,38,6.30
2010,05,23,05,39,6.30
2010,05,23,05,40,6.40
2010,05,23,05,41,6.50
2010,05,23,05,42,6.50
2010,05,23,05,43,6.60
2010,05,23,05,44,6.50
2010,05,23,05,45,6.50
2010,05,23,05,46,6.60
2010,05,23,05,47,6.50
2010,05,23,05,48,6.50
2010,05,23,05,49,6.50
2010,05,23,05,50,6.50
2010,05,23,05,51,6.60
2010,05,23,05,52,6.60
2010,05,23,05,53,6.60
2010,05,23,05,54,6.60
2010,05,23,05,55,6.60
2010,05,23,05,56,6.60
2010,05,23,05,57,6.70
2010,05,23,05,58,6.70
2010,05,23,05,59,6.80
2010,05,23,06,00,6.80
2010,05,23,06,01,6.80
2010,05,23,06,02,6.80
2010,05,23,06,03,6.80
2010,05,23,06,04,6.80
2010,05,23,06,05,6.80
2010,05,23,06,06,6.90
2010,05,23,06,07,6.90
2010,05,23,06,08,6.90
2010,05,23,06,09,7.00
2010,05,23,06,10,7.00
2010,05,23,06,11,7.10
2010,05,23,06,12,7.20
2010,05,23,06,13,7.20
2010,05,23,06,14,7.20
2010,05,23,06,15,7.20
2010,05,23,06,16,7.20
2010,05,23,06,17,7.20
2010,05,23,06,18,7.20
2010,05,23,06,19,7.20
2010,05,23,06,20,7.20
2010,05,23,06,21,7.20
2010,05,23,06,22,7.20
2010,05,23,06,23,7.20
2010,05,23,06,24,7.20
2010,05,23,06,25,7.20
2010,05,23,06,26,7.20
2010,05,23,06,27,7.20
2010,05,23,06,28,7.20
2010,05,23,06,29,7.20
2010,05,23,06,30,7.30
2010,05,23,06,31,7.30
2010,05,23,06,32,7.30
2010,05,23,06,33,7.40
2010,05,23,06,34,7.40
2010,05,23,06,35,7.50
2010,05,23,06,36,7.50
2010,05,23,06,37,7.50
2010,05,23,06,38,7.60
2010,05,23,06,39,7.60
2010,05,23,06,40,7.60
2010,05,23,06,41,7.60
2010,05,23,06,42,7.60
2010,05,23,06,43,7.60
2010,05,23,06,44,7.60
2010,05,23,06,45,7.70
2010,05,23,06,46,7.70
2010,05,23,06,47,7.70
2010,05,23,06,48,7.70
2010,05,23,06,49,7.70
2010,05,23,06,50,7.70
2010,05,23,06,51,7.70
2010,05,23,06,52,7.70
2010,05,23,06,53,7.80
2010,05,23,06,54,7.80
2010,05,23,06,55,7.90
2010,05,23,06,56,8.00
2010,05,23,06,57,8.00
2010,05,23,06,58,8.10
2010,05,23,06,59,8.20
2010,05,23,07,00,8.20
2010,05,23,07,01,8.30
2010,05,23,07,02,8.30
2010,05,23,07,03,8.40
2010,05,23,07,04,8.40
2010,05,23,07,05,8.50
2010,05,23,07,06,8.50
2010,05,23,07,07,8.60
2010,05,23,07,08,8.60
2010,05,23,07,09,8.70
2010,05,23,07,10,8.70
2010,05,23,07,11,8.70
2010,05,23,07,12,8.70
2010,05,23,07,13,8.80
2010,05,23,07,14,8.80
2010,05,23,07,15,8.80
2010,05,23,07,16,8.80
2010,05,23,07,17,8.80
2010,05,23,07,18,8.90
2010,05,23,07,19,8.90
2010,05,23,07,20,8.90
2010,05,23,07,21,8.90
2010,05,23,07,22,9.00
2010,05,23,07,23,9.00
2010,05,23,07,24,9.00
2010,05,23,07,25,9.00
2010,05,23,07,26,9.10
2010,05,23,07,27,9.10
2010,05,23,07,28,9.10
2010,05,23,07,29,9.10
2010,05,23,07,30,9.10
2010,05,23,07,31,9.10
2010,05,23,07,32,9.10
2010,05,23,07,33,9.10
2010,05,23,07,34,9.10
2010,05,23,07,35,9.10
2010,05,23,07,36,9.10
2010,05,23,07,37,9.10
2010,05,23,07,38,9.10
2010,05,23,07,39,9.10
2010,05,23,07,40,9.10
2010,05,23,07,41,9.10
2010,05,23,07,42,9.10
2010,05,23,07,43,9.20
2010,05,23,07,44,9.20
2010,05,23,07,45,9.20
2010,05,23,07,46,9.20
2010,05,23,07,47,9.20
2010,05,23,07,48,9.20
2010,05,23,07,49,9.20
2010,05,23,07,50,9.20
2010,05,23,07,51,9.20
2010,05,23,07,52,9.20
2010,05,23,07,53,9.20
2010,05,23,07,54,9.20
2010,05,23,07,55,9.30
2010,05,23,07,56,9.30
2010,05,23,07,57,9.30
2010,05,23,07,58,9.30
2010,05,23,07,59,9.30
2010,05,23,08,00,9.30
2010,05,23,08,01,9.30
2010,05,23,08,02,9.40
2010,05,23,08,03,9.40
2010,05,23,08,04,9.40
2010,05,23,08,05,9.40
2010,05,23,08,06,9.40
2010,05,23,08,07,9.50
2010,05,23,08,08,9.50
2010,05,23,08,09,9.50
2010,05,23,08,10,9.50
2010,05,23,08,11,9.60
2010,05,23,08,12,9.60
2010,05,23,08,13,9.60
2010,05,23,08,14,9.60
2010,05,23,08,15,9.60
2010,05,23,08,16,9.60
2010,05,23,08,17,9.60
2010,05,23,08,18,9.60
2010,05,23,08,19,9.70
2010,05,23,08,20,9.70
2010,05,23,08,21,9.70
2010,05,23,08,22,9.70
2010,05,23,08,23,9.70
2010,05,23,08,24,9.70
2010,05,23,08,25,9.70
2010,05,23,08,26,9.70
2010,05,23,08,27,9.70
2010,05,23,08,28,9.70
2010,05,23,08,29,9.70
2010,05,23,08,30,9.70
2010,05,23,08,31,9.80
2010,05,23,08,32,9.80
2010,05,23,08,33,9.80
2010,05,23,08,34,9.80
2010,05,23,08,35,9.90
2010,05,23,08,36,9.90
2010,05,23,08,37,9.90
2010,05,23,08,38,9.90
2010,05,23,08,39,9.90
2010,05,23,08,40,9.90
2010,05,23,08,41,10.00
2010,05,23,08,42,10.00
2010,05,23,08,43,10.00
2010,05,23,08,44,9.90
2010,05,23,08,45,10.00
2010,05,23,08,46,10.00
2010,05,23,08,47,10.00
2010,05,23,08,48,10.00
2010,05,23,08,49,10.00
2010,05,23,08,50,10.00
2010,05,23,08,51,10.00
2010,05,23,08,52,10.00
2010,05,23,08,53,9.90
2010,05,23,08,54,9.90
2010,05,23,08,55,9.90
2010,05,23,08,56,9.90
2010,05,23,08,57,9.90
2010,05,23,08,58,9.90
2010,05,23,08,59,9.90
2010,05,23,09,00,9.90
2010,05,23,09,01,9.90
2010,05,23,09,02,9.90
2010,05,23,09,03,9.90
2010,05,23,09,04,9.90
2010,05,23,09,05,9.90
2010,05,23,09,06,10.00
2010,05,23,09,07,10.00
2010,05,23,09,08,10.00
2010,05,23,09,09,10.00
2010,05,23,09,10,10.00
2010,05,23,09,11,10.00
2010,05,23,09,12,10.00
2010,05,23,09,13,10.00
2010,05,23,09,14,10.00
2010,05,23,09,15,10.00
2010,05,23,09,16,10.00
2010,05,23,09,17,10.00
2010,05,23,09,18,10.00
2010,05,23,09,19,10.00
2010,05,23,09,20,10.00
2010,05,23,09,21,10.00
2010,05,23,09,22,10.00
2010,05,23,09,23,10.10
2010,05,23,09,24,10.10
2010,05,23,09,25,10.10
2010,05,23,09,26,10.10
2010,05,23,09,27,10.10
2010,05,23,09,28,10.20
2010,05,23,09,29,10.20
2010,05,23,09,30,10.20
2010,05,23,09,31,10.20
2010,05,23,09,32,10.20
2010,05,23,09,33,10.30
2010,05,23,09,34,10.30
2010,05,23,09,35,10.30
2010,05,23,09,36,10.30
2010,05,23,09,37,10.40
2010,05,23,09,38,10.50
2010,05,23,09,39,10.50
2010,05,23,09,40,10.60
2010,05,23,09,41,10.60
2010,05,23,09,42,10.70
2010,05,23,09,43,10.70
2010,05,23,09,44,10.80
2010,05,23,09,45,10.80
2010,05,23,09,46,10.90
2010,05,23,09,47,11.00
2010,05,23,09,48,11.10
2010,05,23,09,49,11.20
2010,05,23,09,50,11.30
2010,05,23,09,51,11.30
2010,05,23,09,52,11.40
2010,05,23,09,53,11.50
2010,05,23,09,54,11.60
2010,05,23,09,55,11.60
2010,05,23,09,56,11.60
2010,05,23,09,57,11.60
2010,05,23,09,58,11.60
2010,05,23,09,59,11.60
2010,05,23,10,00,11.50
2010,05,23,10,01,11.50
2010,05,23,10,02,11.40
2010,05,23,10,03,11.30
2010,05,23,10,04,11.30
2010,05,23,10,05,11.20
2010,05,23,10,06,11.20
2010,05,23,10,07,11.10
2010,05,23,10,08,11.10
2010,05,23,10,09,11.10
2010,05,23,10,10,11.10
2010,05,23,10,11,11.10
2010,05,23,10,12,11.00
2010,05,23,10,13,11.00
2010,05,23,10,14,11.00
2010,05,23,10,15,10.90
2010,05,23,10,16,10.90
2010,05,23,10,17,10.90
2010,05,23,10,18,10.90
2010,05,23,10,19,10.90
2010,05,23,10,20,10.90
2010,05,23,10,21,10.90
2010,05,23,10,22,10.90
2010,05,23,10,23,11.00
2010,05,23,10,24,11.00
2010,05,23,10,25,11.00
2010,05,23,10,26,11.10
2010,05,23,10,27,11.10
2010,05,23,10,28,11.10
2010,05,23,10,29,11.10
2010,05,23,10,30,11.10
2010,05,23,10,31,11.20
2010,05,23,10,32,11.20
2010,05,23,10,33,11.10
2010,05,23,10,34,11.10
2010,05,23,10,35,11.10
2010,05,23,10,36,11.10
2010,05,23,10,37,11.10
2010,05,23,10,38,11.00
2010,05,23,10,39,11.10
2010,05,23,10,40,11.10
2010,05,23,10,41,11.10
2010,05,23,10,42,11.20
2010,05,23,10,43,11.20
2010,05,23,10,44,11.20
2010,05,23,10,45,11.20
2010,05,23,10,46,11.10
2010,05,23,10,47,11.10
2010,05,23,10,48,11.00
2010,05,23,10,49,11.00
2010,05,23,10,50,11.00
2010,05,23,10,51,11.00
2010,05,23,10,52,10.90
2010,05,23,10,53,10.90
2010,05,23,10,54,10.90
2010,05,23,10,55,10.90
2010,05,23,10,56,10.90
2010,05,23,10,57,11.00
2010,05,23,10,58,11.00
2010,05,23,10,59,11.00
2010,05,23,11,00,11.00
2010,05,23,11,01,10.90
2010,05,23,11,02,10.90
2010,05,23,11,03,10.90
2010,05,23,11,04,10.90
2010,05,23,11,05,10.90
2010,05,23,11,06,10.90
2010,05,23,11,07,11.00
2010,05,23,11,08,11.00
2010,05,23,11,09,11.10
2010,05,23,11,10,11.10
2010,05,23,11,11,11.20
2010,05,23,11,12,11.30
2010,05,23,11,13,11.40
2010,05,23,11,14,11.50
2010,05,23,11,15,11.70
2010,05,23,11,16,11.80
2010,05,23,11,17,11.80
2010,05,23,11,18,11.80
2010,05,23,11,19,11.90
2010,05,23,11,20,12.00
2010,05,23,11,21,12.00
2010,05,23,11,22,12.10
2010,05,23,11,23,12.20
2010,05,23,11,24,12.20
2010,05,23,11,25,12.20
2010,05,23,11,26,12.30
2010,05,23,11,27,12.40
2010,05,23,11,28,12.40
2010,05,23,11,29,12.40
2010,05,23,11,30,12.40
2010,05,23,11,31,12.40
2010,05,23,11,32,12.40
2010,05,23,11,33,12.40
2010,05,23,11,34,12.40
2010,05,23,11,35,12.40
2010,05,23,11,36,12.50
2010,05,23,11,37,12.50
2010,05,23,11,38,12.50
2010,05,23,11,39,12.60
2010,05,23,11,40,12.60
2010,05,23,11,41,12.60
2010,05,23,11,42,12.50
2010,05,23,11,43,12.40
2010,05,23,11,44,12.40
2010,05,23,11,45,12.40
2010,05,23,11,46,12.50
2010,05,23,11,47,12.60
2010,05,23,11,48,12.70
2010,05,23,11,49,12.80
2010,05,23,11,50,13.00
2010,05,23,11,51,13.10
2010,05,23,11,52,13.30
2010,05,23,11,53,13.40
2010,05,23,11,54,13.50
2010,05,23,11,55,13.50
2010,05,23,11,56,13.50
2010,05,23,11,57,13.50
2010,05,23,11,58,13.60
2010,05,23,11,59,13.50
2010,05,23,12,00,13.50
2010,05,23,12,01,13.50
2010,05,23,12,02,13.40
2010,05,23,12,03,13.40
2010,05,23,12,04,13.30
2010,05,23,12,05,13.30
2010,05,23,12,06,13.30
2010,05,23,12,07,13.40
2010,05,23,12,08,13.40
2010,05,23,12,09,13.40
2010,05,23,12,10,13.40
2010,05,23,12,11,13.30
2010,05,23,12,12,13.30
2010,05,23,12,13,13.30
2010,05,23,12,14,13.20
2010,05,23,12,15,13.20
2010,05,23,12,16,13.20
2010,05,23,12,17,13.20
2010,05,23,12,18,13.10
2010,05,23,12,19,13.10
2010,05,23,12,20,13.10
2010,05,23,12,21,13.10
2010,05,23,12,22,13.10
2010,05,23,12,23,13.20
2010,05,23,12,24,13.20
2010,05,23,12,25,13.30
2010,05,23,12,26,13.40
2010,05,23,12,27,13.50
2010,05,23,12,28,13.70
2010,05,23,12,29,13.70
2010,05,23,12,30,13.80
2010,05,23,12,31,13.80
2010,05,23,12,32,13.80
2010,05,23,12,33,13.80
2010,05,23,12,34,13.80
2010,05,23,12,35,13.80
2010,05,23,12,36,13.90
2010,05,23,12,37,14.00
2010,05,23,12,38,14.10
2010,05,23,12,39,14.20
2010,05,23,12,40,14.20
2010,05,23,12,41,14.20
2010,05,23,12,42,14.30
2010,05,23,12,43,14.30
2010,05,23,12,44,14.20
2010,05,23,12,45,14.00
2010,05,23,12,46,13.80
2010,05,23,12,47,13.80
2010,05,23,12,48,13.80
2010,05,23,12,49,13.80
2010,05,23,12,50,13.70
2010,05,23,12,51,13.60
2010,05,23,12,52,13.60
2010,05,23,12,53,13.60
2010,05,23,12,54,13.50
2010,05,23,12,55,13.50
2010,05,23,12,56,13.50
2010,05,23,12,57,13.50
2010,05,23,12,58,13.50
2010,05,23,12,59,13.60
2010,05,23,13,00,13.60
2010,05,23,13,01,13.60
2010,05,23,13,02,13.60
2010,05,23,13,03,13.50
2010,05,23,13,04,13.50
2010,05,23,13,05,13.40
2010,05,23,13,06,13.30
2010,05,23,13,07,13.30
2010,05,23,13,08,13.30
2010,05,23,13,09,13.30
2010,05,23,13,10,13.30
2010,05,23,13,11,13.30
2010,05,23,13,12,13.30
2010,05,23,13,13,13.40
2010,05,23,13,14,13.40
2010,05,23,13,15,13.50
2010,05,23,13,16,13.50
2010,05,23,13,17,13.60
2010,05,23,13,18,13.60
2010,05,23,13,19,13.50
2010,05,23,13,20,13.50
2010,05,23,13,21,13.50
2010,05,23,13,22,13.50
2010,05,23,13,23,13.40
2010,05,23,13,24,13.30
2010,05,23,13,25,13.30
2010,05,23,13,26,13.30
2010,05,23,13,27,13.30
2010,05,23,13,28,13.30
2010,05,23,13,29,13.30
2010,05,23,13,30,13.30
2010,05,23,13,31,13.30
2010,05,23,13,32,13.30
2010,05,23,13,33,13.30
2010,05,23,13,34,13.30
2010,05,23,13,35,13.30
2010,05,23,13,36,13.10
2010,05,23,13,37,13.10
2010,05,23,13,38,13.00
2010,05,23,13,39,13.00
2010,05,23,13,40,13.10
2010,05,23,13,41,13.20
2010,05,23,13,42,13.20
2010,05,23,13,43,13.30
2010,05,23,13,44,13.30
2010,05,23,13,45,13.40
2010,05,23,13,46,13.40
2010,05,23,13,47,13.40
2010,05,23,13,48,13.40
2010,05,23,13,49,13.30
2010,05,23,13,50,13.30
2010,05,23,13,51,13.40
2010,05,23,13,52,13.50
2010,05,23,13,53,13.50
2010,05,23,13,54,13.50
2010,05,23,13,55,13.60
2010,05,23,13,56,13.60
2010,05,23,13,57,13.60
2010,05,23,13,58,13.70
2010,05,23,13,59,13.80
2010,05,23,14,00,13.80
2010,05,23,14,01,13.80
2010,05,23,14,02,13.80
2010,05,23,14,03,13.80
2010,05,23,14,04,13.90
2010,05,23,14,05,13.90
2010,05,23,14,06,14.00
2010,05,23,14,07,14.00
2010,05,23,14,08,14.00
2010,05,23,14,09,14.00
2010,05,23,14,10,14.00
2010,05,23,14,11,14.10
2010,05,23,14,12,14.10
2010,05,23,14,13,13.90
2010,05,23,14,14,13.90
2010,05,23,14,15,13.90
2010,05,23,14,16,13.90
2010,05,23,14,17,13.90
2010,05,23,14,18,14.00
2010,05,23,14,19,14.10
2010,05,23,14,20,14.30
2010,05,23,14,21,14.40
2010,05,23,14,22,14.50
2010,05,23,14,23,14.60
2010,05,23,14,24,14.70
2010,05,23,14,25,14.70
2010,05,23,14,26,14.80
2010,05,23,14,27,14.70
2010,05,23,14,28,14.60
2010,05,23,14,29,14.60
2010,05,23,14,30,14.60
2010,05,23,14,31,14.70
2010,05,23,14,32,14.70
2010,05,23,14,33,14.80
2010,05,23,14,34,14.80
2010,05,23,14,35,14.80
2010,05,23,14,36,14.90
2010,05,23,14,37,14.90
2010,05,23,14,38,14.80
2010,05,23,14,39,14.80
2010,05,23,14,40,14.80
2010,05,23,14,41,14.80
2010,05,23,14,42,14.70
2010,05,23,14,43,14.80
2010,05,23,14,44,14.80
2010,05,23,14,45,14.80
2010,05,23,14,46,14.70
2010,05,23,14,47,14.70
2010,05,23,14,48,14.70
2010,05,23,14,49,14.60
2010,05,23,14,50,14.60
2010,05,23,14,51,14.50
2010,05,23,14,52,14.50
2010,05,23,14,53,14.40
2010,05,23,14,54,14.40
2010,05,23,14,55,14.30
2010,05,23,14,56,14.30
2010,05,23,14,57,14.30
2010,05,23,14,58,14.40
2010,05,23,14,59,14.50
2010,05,23,15,00,14.50
2010,05,23,15,01,14.60
2010,05,23,15,02,14.60
2010,05,23,15,03,14.70
2010,05,23,15,04,14.80
2010,05,23,15,05,14.90
2010,05,23,15,06,14.90
2010,05,23,15,07,15.00
2010,05,23,15,08,15.00
2010,05,23,15,09,15.00
2010,05,23,15,10,15.00
2010,05,23,15,11,14.90
2010,05,23,15,12,14.80
2010,05,23,15,13,14.80
2010,05,23,15,14,14.80
2010,05,23,15,15,14.90
2010,05,23,15,16,15.00
2010,05,23,15,17,15.00
2010,05,23,15,18,15.00
2010,05,23,15,19,15.00
2010,05,23,15,20,15.00
2010,05,23,15,21,15.00
2010,05,23,15,22,15.00
2010,05,23,15,23,14.90
2010,05,23,15,24,14.80
2010,05,23,15,25,14.80
2010,05,23,15,26,14.80
2010,05,23,15,27,14.80
2010,05,23,15,28,14.60
2010,05,23,15,29,14.60
2010,05,23,15,30,14.60
2010,05,23,15,31,14.70
2010,05,23,15,32,14.70
2010,05,23,15,33,14.70
2010,05,23,15,34,14.70
2010,05,23,15,35,14.70
2010,05,23,15,36,14.60
2010,05,23,15,37,14.50
2010,05,23,15,38,14.50
2010,05,23,15,39,14.50
2010,05,23,15,40,14.40
2010,05,23,15,41,14.40
2010,05,23,15,42,14.40
2010,05,23,15,43,14.30
2010,05,23,15,44,14.30
2010,05,23,15,45,14.30
2010,05,23,15,46,14.30
2010,05,23,15,47,14.20
2010,05,23,15,48,14.30
2010,05,23,15,49,14.30
2010,05,23,15,50,14.30
2010,05,23,15,51,14.30
2010,05,23,15,52,14.30
2010,05,23,15,53,14.30
2010,05,23,15,54,14.40
2010,05,23,15,55,14.40
2010,05,23,15,56,14.40
2010,05,23,15,57,14.30
2010,05,23,15,58,14.20
2010,05,23,15,59,14.00
2010,05,23,16,00,13.90
2010,05,23,16,01,13.80
2010,05,23,16,02,13.80
2010,05,23,16,03,13.70
2010,05,23,16,04,13.80
2010,05,23,16,05,13.80
2010,05,23,16,06,13.80
2010,05,23,16,07,13.80
2010,05,23,16,08,13.80
2010,05,23,16,09,13.90
2010,05,23,16,10,14.10
2010,05,23,16,11,14.10
2010,05,23,16,12,14.20
2010,05,23,16,13,14.20
2010,05,23,16,14,14.20
2010,05,23,16,15,14.30
2010,05,23,16,16,14.30
2010,05,23,16,17,14.30
2010,05,23,16,18,14.40
2010,05,23,16,19,14.50
2010,05,23,16,20,14.60
2010,05,23,16,21,14.70
2010,05,23,16,22,14.70
2010,05,23,16,23,14.70
2010,05,23,16,24,14.70
2010,05,23,16,25,14.60
2010,05,23,16,26,14.50
2010,05,23,16,27,14.40
2010,05,23,16,28,14.40
2010,05,23,16,29,14.30
2010,05,23,16,30,14.30
2010,05,23,16,31,14.30
2010,05,23,16,32,14.30
2010,05,23,16,33,14.30
2010,05,23,16,34,14.30
2010,05,23,16,35,14.30
2010,05,23,16,36,14.30
2010,05,23,16,37,14.30
2010,05,23,16,38,14.20
2010,05,23,16,39,14.10
2010,05,23,16,40,14.00
2010,05,23,16,41,14.00
2010,05,23,16,42,14.10
2010,05,23,16,43,14.20
2010,05,23,16,44,14.20
2010,05,23,16,45,14.30
2010,05,23,16,46,14.30
2010,05,23,16,47,14.20
2010,05,23,16,48,14.10
2010,05,23,16,49,14.10
2010,05,23,16,50,14.10
2010,05,23,16,51,14.10
2010,05,23,16,52,14.10
2010,05,23,16,53,14.00
2010,05,23,16,54,13.90
2010,05,23,16,55,13.80
2010,05,23,16,56,13.80
2010,05,23,16,57,13.90
2010,05,23,16,58,13.90
2010,05,23,16,59,13.80
2010,05,23,17,00,13.90
2010,05,23,17,01,13.90
2010,05,23,17,02,14.00
2010,05,23,17,03,14.10
2010,05,23,17,04,14.10
2010,05,23,17,05,14.00
2010,05,23,17,06,13.90
2010,05,23,17,07,14.00
2010,05,23,17,08,14.00
2010,05,23,17,09,14.00
2010,05,23,17,10,14.10
2010,05,23,17,11,14.10
2010,05,23,17,12,14.20
2010,05,23,17,13,14.30
2010,05,23,17,14,14.30
2010,05,23,17,15,14.30
2010,05,23,17,16,14.30
2010,05,23,17,17,14.30
2010,05,23,17,18,14.30
2010,05,23,17,19,14.40
2010,05,23,17,20,14.50
2010,05,23,17,21,14.60
2010,05,23,17,22,14.60
2010,05,23,17,23,14.60
2010,05,23,17,24,14.60
2010,05,23,17,25,14.60
2010,05,23,17,26,14.60
2010,05,23,17,27,14.50
2010,05,23,17,28,14.30
2010,05,23,17,29,14.20
2010,05,23,17,30,14.10
2010,05,23,17,31,14.00
2010,05,23,17,32,14.00
2010,05,23,17,33,14.00
2010,05,23,17,34,14.00
2010,05,23,17,35,14.10
2010,05,23,17,36,14.10
2010,05,23,17,37,14.00
2010,05,23,17,38,13.90
2010,05,23,17,39,13.80
2010,05,23,17,40,13.70
2010,05,23,17,41,13.60
2010,05,23,17,42,13.60